This is the latest recevied weather packets stored in our database for station/object DB0OHA-10. If no packets are shown the sender has not sent any weather packets the latest 10 day(s).
| Time | Temp. | Humidity | Pressure | Rain* | Wind** | Luminosity | Snow |
|---|---|---|---|---|---|---|---|
| 1777640418 | 21.11° C | 39% | 1026.7 hPa | 0 mm | - | 707 W/m² | - |
| 1777639518 | 21.11° C | 39% | 1026.9 hPa | 0 mm | - | 724 W/m² | - |
| 1777638618 | 20.56° C | 39% | 1027.1 hPa | 0 mm | - | 738 W/m² | - |
| 1777637754 | 20.56° C | 41% | 1027.4 hPa | 0 mm | - | 747 W/m² | - |
| 1777637718 | 20.56° C | 41% | 1027.4 hPa | 0 mm | - | 747 W/m² | - |
| 1777636818 | 20° C | 41% | 1027.4 hPa | 0 mm | - | 758 W/m² | - |
| 1777635918 | 20° C | 40% | 1027.5 hPa | 0 mm | - | 763 W/m² | - |
| 1777635018 | 20° C | 44% | 1027.5 hPa | 0 mm | - | 765 W/m² | - |
| 1777634118 | 20° C | 45% | 1027.6 hPa | 0 mm | - | 766 W/m² | - |
| 1777633218 | 19.44° C | 42% | 1027.8 hPa | 0 mm | - | 763 W/m² | - |
| 1777632318 | 19.44° C | 42% | 1027.9 hPa | 0 mm | - | 700 W/m² | - |
| 1777631418 | 18.89° C | 44% | 1028 hPa | 0 mm | - | 592 W/m² | - |
| 1777630518 | 18.89° C | 44% | 1028.2 hPa | 0 mm | - | 624 W/m² | - |
| 1777629618 | 17.78° C | 45% | 1028.3 hPa | 0 mm | - | 714 W/m² | - |
| 1777628718 | 18.33° C | 45% | 1028.3 hPa | 0 mm | - | 708 W/m² | - |
| 1777627818 | 17.78° C | 45% | 1028.4 hPa | 0 mm | - | 694 W/m² | - |
| 1777626918 | 17.22° C | 45% | 1028.6 hPa | 0 mm | - | 673 W/m² | - |
| 1777626018 | 16.67° C | 46% | 1028.7 hPa | 0 mm | - | 650 W/m² | - |
| 1777625118 | 16.67° C | 48% | 1028.8 hPa | 0 mm | - | 628 W/m² | - |
| 1777624218 | 16.11° C | 47% | 1028.7 hPa | 0 mm | - | 599 W/m² | - |
| 1777623318 | 16.11° C | 49% | 1028.8 hPa | 0 mm | - | 573 W/m² | - |
| 1777622418 | 15.56° C | 50% | 1028.9 hPa | 0 mm | - | 541 W/m² | - |
| 1777621518 | 15° C | 51% | 1028.9 hPa | 0 mm | - | 510 W/m² | - |
| 1777620618 | 15° C | 53% | 1029 hPa | 0 mm | - | 475 W/m² | - |
| 1777619724 | 13.89° C | 56% | 1028.9 hPa | 0 mm | - | 432 W/m² | - |
* Rain latest hour (hover to see other rain measurements)
** Current wind speed in m/s (hover to see current wind gust speed)